Погода в Колодрубах

Украина / Львовская область     49°30′18″N   23°47′47″E
темп.,
°C
ветер,
м/с
пор.,
м/с
влажн.,
%
обл.,
%
осадки,
мм/ч
давл.,
гПа
погр.,
м
17 октября, вс
вс1700:00+3зсз33915 0.0 102333
03:00+3зсз22925 0.0 102323
06:00+2з119114 0.0 102310
09:00+3юз118477 0.0 102328
12:00+9з125512 0.0 1022922
15:00+12зсз34465 0.0 10211277
18:00+9ссз225765 0.0 102022
21:00+5юз1168100 0.0 102210
18 октября, пн
пн1800:00+5юз1173100 0.0 102210
03:00+5юз2274100 0.0 102211
06:00+5юз2270100 0.0 102221
09:00+6з2770100 0.0 1023213
12:00+10зсз6860100 0.0 1023995
15:00+9з6970100 0.0 1023879
18:00+9зсз5107398 0.0 1024669
21:00+9з51076100 0.0 1024540
19 октября, вт
вт1900:00+8з61282100 0.1 1024632
03:00+9зсз61283100 0.4 1025722
06:00+8зсз4990100 0.4 1026442
09:00+8зсз2495100 0.7 1028217
12:00+9з238499 0.0 1028491
15:00+10зсз2384100 0.1 1028306
18:00+9юв0087100 0.0 102714
21:00+9ююв228899 0.0 102830
20 октября, ср
ср2000:00+8юв34896 0.0 102794
03:00+6ююв3392100 0.0 102737
06:00+5ююв3387100 0.0 102536
09:00+8ююв3576100 0.0 1024114
12:00+15юз4748100 0.0 1022876
15:00+16юз5843100 0.0 1020924
18:00+13ююз3655100 0.0 1018108
21:00+10ю2360100 0.0 101745
21 октября, чт
чт2100:00+10ю3460100 0.0 101656
03:00+10ю3559100 0.0 101457
06:00+11ююз41055100 0.0 1013233
09:00+13ююз5125398 0.0 1012500
12:00+16юз81351100 0.0 1012977
15:00+16зюз71254100 0.0 1010656
18:00+13юз71462100 0.0 1011457
21:00+13юз61366100 0.0 1012588